(168209) = 2004 XJ59 = 2006 JP30

Discovered at Kitt Peak on 2006-05-03 by Spacewatch.

Orbit

Orbit type: Main Belt

Note: WebGL enabled browser required.

epoch2024-03-31.0
epoch JD2460400.5
perihelion date2024-03-19.86935
perihelion JD2460389.36935
argument of perihelion (°)312.25725
ascending node (°)65.13685
inclination (°)7.14842
eccentricity0.1482085
perihelion distance (AU)1.8909582
Tisserand w.r.t. Jupiter3.6
ΔV w.r.t. Earth (km/sec)8.7
semimajor axis (AU)2.2199777
mean anomaly (°)3.31666
mean daily motion (°/day)0.29797580
aphelion distance (AU)2.549
period (years)3.31
P-vector [x]0.94905138
P-vector [y]0.31312978
P-vector [z]0.03537257
Q-vector [x]-0.29420003
Q-vector [y]0.84022391
Q-vector [z]0.45548888
absolute magnitude17.27
phase slope0.15
uncertainty0
referenceMPEC 2024-E123
observations used490
oppositions15
arc length (days)9944
first opposition used1996
last opposition used2023
residual rms (arc-secs)0.71
perturbers coarse indicatorM-v
perturbers precise indicator003Ek
first observation date used1996-03-26.0
last observation date used2023-06-17.0
computer nameMPCLINUX
JD of orbit computation2456966.862359
perihelion JD uncertainty (days)6.7501E-05
argument of perihelion uncertainty (°)4.5231E-05
ascending node uncertainty (°)3.8854E-05
inclination uncertainty (°)8.5750E-06
eccentricity uncertainty 7.2931E-08
perihelion distance uncertainty (AU)1.6632E-07
Minimum Orbit Intersection Distances (in AU)
for orbit epoch: 2460000.5, reference: E2023-M35
Mercury1.54188
Venus1.16708
Earth0.90081
Mars0.46024
Jupiter2.91039
Saturn6.87405
Uranus15.9459
Neptune27.9537

Observations

497 total observations over interval: 1996 03 26.42749 – 2023 06 17.457378
These data are available for download (format description).

Date (UT) J2000 RA J2000 Dec Magn Location Ref
1996 03 26.42749 14 45 51.18 -09 08 27.9 21.6 V 691 – Steward Observatory, Kitt Peak-Spacewatch MPS 171670
1996 03 26.45901 14 45 50.07 -09 08 23.9   691 – Steward Observatory, Kitt Peak-Spacewatch MPS 171670
1996 03 26.49100 14 45 48.98 -09 08 19.0   691 – Steward Observatory, Kitt Peak-Spacewatch MPS 171670
1996 04 19.35803 14 25 58.65 -07 56 01.5 20.7 V 691 – Steward Observatory, Kitt Peak-Spacewatch MPS 171670
1996 04 19.37926 14 25 57.26 -07 55 57.2   691 – Steward Observatory, Kitt Peak-Spacewatch MPS 171670
1996 04 19.40025 14 25 55.92 -07 55 53.1   691 – Steward Observatory, Kitt Peak-Spacewatch MPS 171670
2004 12 10.46641 07 31 25.87 +28 15 18.2 20.3 V 691 – Steward Observatory, Kitt Peak-Spacewatch MPS 121877
2004 12 10.50096 07 31 24.24 +28 15 32.0 20.2 V 691 – Steward Observatory, Kitt Peak-Spacewatch MPS 121877
2004 12 10.52890 07 31 22.91 +28 15 43.3 20.5 V 691 – Steward Observatory, Kitt Peak-Spacewatch MPS 121877
2004 12 14.43279 07 28 11.97 +28 43 00.7 19.7 V 691 – Steward Observatory, Kitt Peak-Spacewatch MPS 121877
2004 12 14.45889 07 28 10.52 +28 43 11.2 20.2 V 691 – Steward Observatory, Kitt Peak-Spacewatch MPS 121877
2004 12 14.48461 07 28 09.09 +28 43 22.0 20.1 V 691 – Steward Observatory, Kitt Peak-Spacewatch MPS 121877
2005 01 06.36546 07 01 41.23 +31 02 32.5 18.7 R 703 – Catalina Sky Survey MPS 171670
2005 01 06.36841 07 01 40.92 +31 02 32.9 19.1 R 703 – Catalina Sky Survey MPS 171670
2005 01 06.36928 07 01 40.88 +31 02 33.6 18.9 R 703 – Catalina Sky Survey MPS 171670
2005 01 06.37220 07 01 40.66 +31 02 33.8 19.1 R 703 – Catalina Sky Survey MPS 171670
2005 01 06.37308 07 01 40.59 +31 02 34.5 19.1 R 703 – Catalina Sky Survey MPS 171670
2005 01 06.37598 07 01 40.35 +31 02 34.8 19.2 R 703 – Catalina Sky Survey MPS 171670
2005 01 06.37685 07 01 40.31 +31 02 34.6 19.1 R 703 – Catalina Sky Survey MPS 171670
2005 01 06.37975 07 01 40.04 +31 02 35.9 19.2 R 703 – Catalina Sky Survey MPS 171670
2005 01 07.27372 07 00 32.17 +31 06 31.1 19.5   704 – Lincoln Laboratory ETS, New Mexico MPS 171670
2005 01 07.28673 07 00 31.10 +31 06 34.9 19.6   704 – Lincoln Laboratory ETS, New Mexico MPS 171670
2005 01 07.30123 07 00 30.04 +31 06 39.8 19.9   704 – Lincoln Laboratory ETS, New Mexico MPS 171670
2005 01 07.31474 07 00 28.92 +31 06 42.5 19.6   704 – Lincoln Laboratory ETS, New Mexico MPS 171670
2006 04 21.27915 15 03 40.99 -12 11 17.1   691 – Steward Observatory, Kitt Peak-Spacewatch MPS 171670
2006 04 21.29647 15 03 39.97 -12 11 14.9   691 – Steward Observatory, Kitt Peak-Spacewatch MPS 171670
2006 04 21.31380 15 03 38.94 -12 11 12.5   691 – Steward Observatory, Kitt Peak-Spacewatch MPS 171670
2006 05 03.26934 14 51 09.45 -11 43 28.5 21.1 V 691 – Steward Observatory, Kitt Peak-Spacewatch MPS 171460
2006 05 03.28664 14 51 08.23 -11 43 26.3 20.8 V 691 – Steward Observatory, Kitt Peak-Spacewatch MPS 171460
2006 05 03.30401 14 51 07.05 -11 43 24.3 20.4 V 691 – Steward Observatory, Kitt Peak-Spacewatch MPS 171460
2006 05 07.21274 14 46 49.64 -11 34 42.7 20.7 V 691 – Steward Observatory, Kitt Peak-Spacewatch MPS 171460
2006 05 07.23006 14 46 48.47 -11 34 41.7 20.6 V 691 – Steward Observatory, Kitt Peak-Spacewatch MPS 171460
2006 05 07.24738 14 46 47.27 -11 34 39.0 20.4 V 691 – Steward Observatory, Kitt Peak-Spacewatch MPS 171460
2006 05 25.26664 14 28 25.57 -11 06 29.0 20.6 V G96 – Mt. Lemmon Survey MPS 172130
2006 05 25.27198 14 28 25.24 -11 06 28.9 20.5 V G96 – Mt. Lemmon Survey MPS 172130
2006 05 25.27745 14 28 24.99 -11 06 28.3 20.5 V G96 – Mt. Lemmon Survey MPS 172130
2006 05 25.28295 14 28 24.67 -11 06 28.2 20.4 V G96 – Mt. Lemmon Survey MPS 172130
2007 09 10.41671 03 09 24.87 +09 10 31.8 20.4 V 703 – Catalina Sky Survey MPS 215177
2007 09 10.42380 03 09 25.23 +09 10 32.4 19.6 V 703 – Catalina Sky Survey MPS 215177
2007 09 10.43088 03 09 25.38 +09 10 33.4 21.0 V 703 – Catalina Sky Survey MPS 215177
2007 09 10.43804 03 09 25.56 +09 10 34.9 21.0 V 703 – Catalina Sky Survey MPS 215177
2007 10 07.31245 03 11 34.88 +09 43 58.8 19.8   704 – Lincoln Laboratory ETS, New Mexico MPS 218714
2007 10 07.32347 03 11 34.50 +09 43 58.2 20.3   704 – Lincoln Laboratory ETS, New Mexico MPS 218714
2007 10 07.34553 03 11 33.91 +09 44 01.2 19.9   704 – Lincoln Laboratory ETS, New Mexico MPS 218714
2007 10 07.35658 03 11 33.66 +09 44 02.1 20.1   704 – Lincoln Laboratory ETS, New Mexico MPS 218714
2007 10 08.40098 03 11 04.07 +09 44 25.7 19.6 r 699 – Lowell Observatory-LONEOS MPS 218714
2007 10 08.41836 03 11 03.60 +09 44 25.7   699 – Lowell Observatory-LONEOS MPS 218714
2007 10 08.43577 03 11 02.91 +09 44 26.1   699 – Lowell Observatory-LONEOS MPS 218714
2007 10 08.45315 03 11 02.38 +09 44 27.1   699 – Lowell Observatory-LONEOS MPS 218714
2007 10 09.32767 03 10 36.09 +09 44 47.1 19.5 V 691 – Steward Observatory, Kitt Peak-Spacewatch MPS 218714
2007 10 09.34530 03 10 35.49 +09 44 47.7 19.4 V 691 – Steward Observatory, Kitt Peak-Spacewatch MPS 218714
2007 10 09.36294 03 10 34.87 +09 44 47.9 19.5 V 691 – Steward Observatory, Kitt Peak-Spacewatch MPS 218714
2007 10 13.26860 03 08 14.85 +09 46 00.3 20.5   704 – Lincoln Laboratory ETS, New Mexico MPS 220593
2007 10 13.27969 03 08 14.22 +09 46 01.5 20.4   704 – Lincoln Laboratory ETS, New Mexico MPS 220593
2007 10 13.29077 03 08 13.85 +09 46 00.4 20.7   704 – Lincoln Laboratory ETS, New Mexico MPS 220593
2007 10 13.30185 03 08 13.31 +09 46 01.1 20.2   704 – Lincoln Laboratory ETS, New Mexico MPS 220593
2007 10 30.29821 02 52 40.18 +09 51 26.6 18.2 V 703 – Catalina Sky Survey MPS 224541
2007 10 30.30633 02 52 39.64 +09 51 25.7 18.3 V 703 – Catalina Sky Survey MPS 224541
2007 10 30.31446 02 52 39.07 +09 51 26.5 18.6 V 703 – Catalina Sky Survey MPS 224541
2007 10 30.32257 02 52 38.56 +09 51 26.6 18.6 V 703 – Catalina Sky Survey MPS 224541
2007 11 02.33554 02 49 18.66 +09 53 22.4 18.1 V G96 – Mt. Lemmon Survey MPS 226652
2007 11 02.34287 02 49 18.15 +09 53 22.7 18.6 V G96 – Mt. Lemmon Survey MPS 226652
2007 11 02.35013 02 49 17.65 +09 53 23.1 18.5 V G96 – Mt. Lemmon Survey MPS 226652
2007 11 02.35742 02 49 17.11 +09 53 23.2 18.1 V G96 – Mt. Lemmon Survey MPS 226652
2007 11 03.26015 02 48 16.80 +09 54 04.7   291 – LPL/Spacewatch II MPS 226652
2007 11 03.26210 02 48 16.66 +09 54 04.3 18.0 V G96 – Mt. Lemmon Survey MPS 226652
2007 11 03.26737 02 48 16.30 +09 54 05.1   291 – LPL/Spacewatch II MPS 226652
2007 11 03.27344 02 48 15.87 +09 54 05.0 18.1 V G96 – Mt. Lemmon Survey MPS 226652
2007 11 03.27465 02 48 15.79 +09 54 05.5   291 – LPL/Spacewatch II MPS 226652
2007 11 03.28490 02 48 15.04 +09 54 05.5 18.1 V G96 – Mt. Lemmon Survey MPS 226652
2007 11 03.29631 02 48 14.25 +09 54 06.2 18.2 V G96 – Mt. Lemmon Survey MPS 226652
2007 11 03.34756 02 48 10.65 +09 54 08.6 18.1 V G96 – Mt. Lemmon Survey MPS 226652
2007 11 03.34984 02 48 10.47 +09 54 08.7 18.1 V G96 – Mt. Lemmon Survey MPS 226652
2007 11 03.35211 02 48 10.33 +09 54 08.7 18.0 V G96 – Mt. Lemmon Survey MPS 226652
2007 11 03.35442 02 48 10.15 +09 54 08.9 18.1 V G96 – Mt. Lemmon Survey MPS 226652
2007 11 04.26064 02 47 09.30 +09 54 55.9 18.9   704 – Lincoln Laboratory ETS, New Mexico MPS 226652
2007 11 04.27277 02 47 08.49 +09 54 56.1 19.1   704 – Lincoln Laboratory ETS, New Mexico MPS 226652
2007 11 04.28491 02 47 07.63 +09 54 56.7 19.1   704 – Lincoln Laboratory ETS, New Mexico MPS 226652
2007 11 04.29695 02 47 06.80 +09 54 56.1 19.2   704 – Lincoln Laboratory ETS, New Mexico MPS 226652
2007 11 04.30901 02 47 05.91 +09 54 56.4 19.1   704 – Lincoln Laboratory ETS, New Mexico MPS 226652
2007 11 07.31639 02 43 43.03 +09 57 54.5 18.5 V 703 – Catalina Sky Survey MPS 226652
2007 11 07.33061 02 43 42.06 +09 57 55.1 18.2 V 703 – Catalina Sky Survey MPS 226652
2007 11 07.34484 02 43 41.05 +09 57 56.5 18.5 V 703 – Catalina Sky Survey MPS 226652
2007 11 07.35909 02 43 40.04 +09 57 57.0 18.9 V 703 – Catalina Sky Survey MPS 226652
2007 11 11.35302 02 39 14.85 +10 03 06.6 19.0 r 699 – Lowell Observatory-LONEOS MPS 228159
2007 11 11.37496 02 39 13.32 +10 03 09.2 19.2 r 699 – Lowell Observatory-LONEOS MPS 228159
2007 11 11.39690 02 39 11.90 +10 03 10.2 19.0 r 699 – Lowell Observatory-LONEOS MPS 228159
